This is the latest recevied weather packets stored in our database for station/object KG5MMT-12. If no packets are shown the sender has not sent any weather packets the latest 10 day(s).
| Time | Temp. | Humidity | Pressure | Rain* | Wind** | Luminosity | Snow |
|---|---|---|---|---|---|---|---|
| 1788036255 | 28.89° C | 22% | 0 hPa | 0 mm | - | - | - |
| 1788035955 | 29.44° C | 25% | 0 hPa | 0 mm | - | - | - |
| 1788035655 | 29.44° C | 25% | 0 hPa | 0 mm | - | - | - |
| 1788035355 | 29.44° C | 24% | 0 hPa | 0 mm | - | - | - |
| 1788035055 | 29.44° C | 22% | 0 hPa | 0 mm | - | - | - |
| 1788034755 | 29.44° C | 25% | 0 hPa | 0 mm | - | - | - |
| 1788034454 | 28.89° C | 23% | 0 hPa | 0 mm | - | - | - |
| 1788034154 | 28.89° C | 23% | 0 hPa | 0 mm | - | - | - |
| 1788033855 | 28.89° C | 23% | 0 hPa | 0 mm | - | - | - |
| 1788033555 | 28.89° C | 26% | 0 hPa | 0 mm | - | - | - |
| 1788033255 | 28.89° C | 26% | 0 hPa | 0 mm | - | - | - |
| 1788032955 | 28.33° C | 23% | 0 hPa | 0 mm | - | - | - |
| 1788032655 | 28.33° C | 23% | 0 hPa | 0 mm | - | - | - |
| 1788032355 | 27.78° C | 25% | 0 hPa | 0 mm | - | - | - |
| 1788032055 | 28.33° C | 25% | 0 hPa | 0 mm | - | - | - |
| 1788031755 | 28.33° C | 24% | 0 hPa | 0 mm | - | - | - |
| 1788031455 | 28.89° C | 26% | 0 hPa | 0 mm | - | - | - |
| 1788031158 | 28.89° C | 24% | 0 hPa | 0 mm | - | - | - |
| 1788030855 | 28.89° C | 26% | 0 hPa | 0 mm | - | - | - |
| 1788030555 | 28.89° C | 26% | 0 hPa | 0 mm | - | - | - |
| 1788030255 | 28.89° C | 25% | 0 hPa | 0 mm | - | - | - |
| 1788029955 | 28.89° C | 24% | 0 hPa | 0 mm | - | - | - |
| 1788029655 | 28.89° C | 26% | 0 hPa | 0 mm | - | - | - |
| 1788029355 | 28.89° C | 25% | 0 hPa | 0 mm | - | - | - |
| 1788029055 | 28.89° C | 23% | 0 hPa | 0 mm | - | - | - |
* Rain latest hour (hover to see other rain measurements)
** Current wind speed in m/s (hover to see current wind gust speed)